ITASAT

Last updated on Tue Aug 25 2026 00:03:14 GMT+0000 (Coordinated Universal Time)

1 43786U 18099AE 26236.11654433 .00005384 00000+0 25398-3 0 9990 2 43786 97.3981 286.2863 0014028 112.9315 247.3402 15.19795667423220
UTC large
Height (km)
Speed (km/s)
/
Latitude / Longitude
Inclination (degrees)
Orbital Period (minutes)
Azimuth
Elevation
Range (km)
Doppler Factor

Next 0 passes for location: London (51.5072 / 0.1276)

No passes found over London.
ITASAT